Satellite-Ground Cal/Val Site Overpasses Predictions

Prediction of Satellite NPP Overpassing Cal/Val Site: Antarctic Dome C

Ground Cal/Val Site Location: Latitude: -75.10, Longitude: 123.35; Satellite-Ground Site NADIR distance within 100 km.

Table of predicted overpasses for the next 14.0 days since TLE Epoch: 8/24/2013
Interval Starting Time Ending Time Minimum Distance Time Minimum Distance (km)
1 08/24/2013 15:08:04 08/24/2013 15:08:05 08/24/2013 15:08:04 99.75
2 08/25/2013 14:49:00 08/25/2013 14:49:29 08/25/2013 14:49:15 11.47
3 08/27/2013 07:31:52 08/27/2013 07:32:21 08/27/2013 07:32:06 2.94
4 08/30/2013 14:55:23 08/30/2013 14:55:52 08/30/2013 14:55:37 25.34
5 08/31/2013 14:36:41 08/31/2013 14:36:57 08/31/2013 14:36:49 81.80
6 09/01/2013 07:38:15 09/01/2013 07:38:42 09/01/2013 07:38:29 34.20
7 09/02/2013 07:19:31 09/02/2013 07:19:50 09/02/2013 07:19:41 75.81
8 09/04/2013 15:01:48 09/04/2013 15:02:11 09/04/2013 15:02:00 62.48
9 09/05/2013 14:42:58 09/05/2013 14:43:24 09/05/2013 14:43:11 46.69
